Tracking 19212 objects as of 17-Jul-2018
HD Live streaming from Space Station
objects crossing your sky now

FENGYUN 1C DEB

Track FENGYUN 1C DEB now!
10-day predictions


NORAD ID: 30202
Int'l Code: 1999-025VK
Perigee: 767.2 km
Apogee: 857.1 km
Inclination: 98.8 °
Period: 101.0 minutes
Semi major axis: 7183 km
RCS: 0.0415 m2 (small)
Launch date: May 10, 1999
Source: People's Republic of China (PRC)
Launch site: Taiyaun Space Center, China (TSC)

Note: This is SATELLITE DEBRIS
aabbcc
Your satellite tracking list
Your tracking list is empty




NASA's NSSDC Master Catalog

Two Line Element Set (TLE):
1 30202U 99025VK  18197.80606717  .00000508  00000-0  22682-3 0  9999
2 30202  98.8012 246.9858 0062549  91.4043 269.4303 14.26043328595667
Source of the keplerian elements: AFSPC